SCP
3 3 4 5 5 6 6 6 6 6 6 5 4 4 5 5 4 4 3 2 2 2 3 3 3 4 4 4 3 3 2 2 2 2 2 2 2 2 2 3 3 4 4
3 3 4 5 6 6 6 5 5 6 6 5 5 5 5 5 4 4 3 3 2 2 3 3 3 3 4 4 4 3 2 2 2 2 2 2 2 2 2 3 2 2 2
3 4 5 6 6 5 5 5 5 5 5 6 6 6 6 5 4 3 3 2 2 2 2 3 3 3 3 4 3 2 2 1 1 1 1 1 1 2 2 2 1 1 1
4 5 6 6 5 4 4 4 4 4 5 6 7 7 6 5 4 3 2 1 1 1 2 2 2 2 2 2 2 2 1 1 1 1 1 1 1 1 1 1 0 0 0
4 5 6 6 5 4 4 4 4 4 6 7 7 6 5 4 3 1 1 0 0 1 1 2 2 1 2 2 1 1 1 1 1 1 0 0 1 1 1 1 0 0 0
3 3 4 4 4 4 4 4 4 5 6 6 6 5 4 2 1 0 0 0 0 0 1 1 1 1 1 1 1 1 1 0 0 0 0 0 1 1 0 0 0 0 0
2 2 2 2 2 3 3 3 4 4 5 5 5 4 3 1 0 0 0 0 0 0 0 0 0 0 0 0 0 0 0 0 0 0 0 0 0 0 0 0 0 0 0
0 0 0 1 1 2 2 3 3 4 4 4 3 2 1 1 0 0 0 0 0 0 0 0 0 0 0 0 0 0 0 0 0 0 0 0 0 0 0 0 0 0 0
0 0 0 0 0 1 2 2 2 3 3 2 2 1 0 0 0 0 0 0 0 0 0 0 0 0 0 0 0 0 0 0 0 0 0 0 0 0 0 0 0 0 0
0 0 0 0 0 0 1 1 1 2 2 1 1 0 0 0 0 0 0 0 0 0 0 0 0 0 0 0 0 0 0 0 0 0 0 0 0 0 0 0 0 0 0
0 0 0 0 0 0 0 0 0 0 1 0 0 0 0 0 0 0 0 0 0 0 0 0 0 0 0 0 0 0 0 0 0 0 0 0 0 0 0 0 0 0 0
0 0 0 0 0 0 0 0 0 0 0 0 0 0 0 0 0 0 0 0 0 0 0 0 0 0 0 0 0 0 0 0 0 0 0 0 0 0 0 0 0 0 0
0 0 0 0 0 0 0 0 0 0 0 0 0 0 0 0 0 0 0 0 0 0 0 0 0 0 0 0 0 0 0 0 0 0 0 0 0 0 0 0 0 0 0
0 0 0 0 0 0 0 0 0 0 0 0 0 0 0 0 0 0 0 0 0 0 0 0 0 0 0 0 0 0 0 0 0 0 0 0 0 0 0 0 0 0 0
0 0 0 0 0 0 0 0 0 0 0 0 0 0 0 0 0 0 0 0 0 0 0 0 0 0 0 0 0 0 0 0 0 0 0 0 0 0 0 0 0 0 0
0 0 0 0 0 0 0 0 0 0 0 0 0 0 0 0 0 0 0 0 0 0 0 0 0 0 0 0 0 0 0 0 0 0 0 0 0 0 0 0 0 0 0
0 0 0 0 0 0 0 0 0 0 0 0 0 0 0 0 0 0 0 0 0 0 0 0 0 0 0 0 0 0 0 0 0 0 0 0 0 0 0 0 0 0 0
0 0 0 0 0 0 0 0 0 0 0 0 0 0 0 0 0 0 0 0 0 0 0 0 0 0 0 0 0 0 0 0 0 0 0 0 0 0 0 0 0 0 0
0 0 0 0 0 0 0 0 0 0 0 0 0 0 0 0 0 0 0 0 0 0 0 0 0 0 0 0 0 0 0 0 0 0 0 0 0 0 0 0 0 0 0
0 0 0 0 0 0 0 0 0 0 0 0 0 0 0 0 0 0 0 0 0 0 0 0 0 0 0 0 0 0 0 0 0 0 0 0 0 0 0 0 0 0 0
0 0 0 0 0 0 0 0 0 0 0 0 0 0 0 0 0 0 0 0 0 0 0 0 0 0 0 0 0 0 0 0 0 0 0 0 0 0 0 0 0 0 0
0 0 0 0 0 0 0 0 0 0 0 0 0 0 0 0 0 0 0 0 0 0 0 0 0 0 0 0 0 0 0 0 0 0 0 0 0 0 0 0 0 0 0
0 0 0 0 0 0 0 0 0 0 0 0 0 0 0 0 0 0 0 0 0 0 0 0 0 0 0 0 0 0 0 0 0 0 0 0 0 0 0 0 0 0 0
0 0 0 0 0 0 0 0 0 0 0 0 0 0 0 0 0 0 0 0 0 0 0 0 0 0 0 0 0 0 0 0 0 0 0 0 0 0 0 0 0 0 0
0 0 0 0 0 0 0 0 0 0 0 0 0 0 0 0 0 0 0 0 0 0 0 0 0 0 0 0 0 0 0 0 0 0 0 0 0 0 0 0 0 0 0
0 0 0 0 0 0 0 0 0 0 0 0 0 0 0 0 0 0 0 0 0 0 0 0 0 0 0 0 0 0 0 0 0 0 0 0 0 0 0 0 0 0 0
Wind_Speed
7 7 7 6 6 6 5 3 2 3 4 4 5 5 4 4 3 3 3 3 4 3 3 3 3 3 2 2 2 2 3 1 1 2 2 2 3 3 3 4 4 6 6
6 7 8 7 7 6 5 4 2 1 2 3 4 4 5 4 4 5 5 5 5 5 4 4 4 4 3 4 2 1 1 2 1 2 3 3 4 3 4 4 5 6 5
6 7 7 8 8 7 6 5 4 2 2 5 6 6 6 5 4 5 5 6 7 6 6 6 6 5 4 4 3 1 1 2 1 3 3 3 1 2 4 6 6 6 6
7 7 8 8 8 7 6 6 6 6 4 4 6 8 6 6 5 5 6 8 9 8 7 8 8 7 6 5 4 3 2 1 2 2 3 4 3 1 2 3 4 6 6
8 8 8 8 8 7 7 7 8 9 8 6 7 8 8 8 7 7 9 9 9 9 9 9 9 8 8 8 7 6 5 4 3 3 2 3 2 2 1 1 2 3 4
9 9 9 9 9 8 8 8 9 10 9 10 9 10 12 11 10 9 9 8 7 8 10 10 9 9 8 8 8 8 10 8 7 5 4 3 3 2 2 1 0 1 3
9 9 10 9 10 10 10 9 11 11 11 11 11 11 11 11 11 9 9 9 8 8 9 9 9 9 8 9 8 9 9 9 8 7 6 6 5 4 3 2 1 1 1
9 10 10 9 9 10 10 10 11 12 12 12 12 11 11 9 9 11 9 9 8 8 9 10 10 10 9 9 8 8 9 8 8 9 7 5 6 5 5 4 2 1 1
9 9 10 10 10 10 10 10 11 12 12 12 13 13 13 13 12 11 11 9 8 8 10 10 10 9 9 9 8 8 8 7 7 8 7 6 5 5 5 4 4 4 3
10 9 9 10 10 10 11 12 12 12 13 12 11 12 13 13 12 11 12 11 10 9 10 10 9 9 9 8 8 8 8 8 7 6 7 6 5 5 4 4 4 4 5
9 8 9 9 10 10 11 12 12 13 13 13 13 13 13 13 12 11 11 10 9 9 9 9 9 9 9 8 7 8 7 8 7 6 7 7 6 5 4 4 4 5 5
10 9 9 10 11 11 11 11 12 13 13 13 13 12 12 12 12 11 10 9 9 9 9 9 9 8 8 7 7 7 7 7 7 6 6 6 5 5 5 4 5 5 4
10 9 9 10 10 11 11 11 12 12 12 12 13 12 11 11 11 10 9 9 9 9 9 8 8 8 7 7 7 7 6 6 6 6 6 5 5 5 5 5 5 4 4
11 10 10 10 10 11 11 11 11 11 11 12 12 11 10 10 10 9 9 8 8 8 8 8 8 8 7 7 6 6 6 6 5 5 5 5 6 6 6 4 5 5 5
11 11 10 10 10 11 11 10 10 10 10 11 11 10 9 9 8 8 8 8 8 8 8 8 8 7 7 7 7 5 5 5 4 4 4 5 5 5 6 7 7 7 6
13 12 11 11 10 11 10 10 10 10 10 10 10 9 8 8 8 8 8 8 8 8 7 7 8 8 8 8 9 8 4 4 4 4 3 2 1 1 4 4 5 6 7
14 13 12 10 10 9 10 10 10 10 9 9 9 9 8 8 7 7 7 7 7 7 7 7 7 8 8 7 7 8 5 4 4 4 4 4 4 4 6 3 7 8 8
14 12 11 10 10 10 9 9 10 9 9 9 8 8 7 7 7 7 7 6 6 6 6 6 6 6 7 6 6 9 3 3 3 4 4 5 5 7 8 8 6 5 2
13 11 11 10 10 11 10 9 9 8 8 8 8 7 7 7 7 7 6 6 5 5 5 5 5 5 6 6 7 11 2 3 3 3 4 5 6 7 8 8 7 6 4
12 11 11 10 10 10 10 9 8 8 8 7 7 7 6 6 6 6 5 5 4 4 4 5 4 4 5 6 7 10 4 4 3 3 3 6 6 8 8 8 7 8 8
13 12 11 10 9 9 9 8 8 7 7 7 7 7 6 6 6 5 4 4 3 4 3 4 4 4 5 5 5 8 6 6 5 4 4 6 7 7 7 7 7 7 9
14 12 10 9 8 8 8 8 7 7 7 7 7 6 5 5 6 5 4 3 2 3 3 3 3 4 4 4 4 4 4 7 5 5 5 6 7 7 6 5 7 10 10
13 11 11 10 8 7 7 8 8 7 6 6 7 6 6 5 5 4 4 3 2 2 2 2 3 3 3 4 3 2 3 4 4 4 4 4 6 7 3 1 6 8 6
12 10 11 10 9 8 7 7 7 6 6 6 6 5 5 5 4 2 3 3 3 3 3 3 3 3 4 5 5 3 1 2 2 2 1 5 6 5 3 3 3 4 5
11 10 10 10 10 9 8 8 7 6 6 6 5 4 4 4 4 4 5 5 7 6 5 5 4 4 5 7 7 7 7 7 7 8 4 3 4 4 5 5 5 5 5
11 10 11 10 10 9 9 7 6 6 5 5 4 3 3 3 2 4 5 6 4 4 3 4 6 4 5 5 4 4 4 6 8 7 4 5 5 6 6 6 6 5 6
Wind_Direction
63 56 48 44 50 53 56 54 101 136 152 161 161 152 139 121 99 83 77 93 100 108 119 127 120 116 122 128 147 148 143 145 181 213 192 151 101 75 59 48 43 48 44
66 58 48 44 43 47 43 43 55 118 166 159 145 129 117 100 89 71 61 65 81 88 99 108 107 98 106 96 86 126 171 119 350 272 237 205 164 107 63 60 56 47 46
71 62 54 46 41 36 31 29 25 50 115 130 123 118 113 103 86 77 62 53 66 75 81 90 86 81 82 83 72 61 166 149 101 2 308 277 222 122 97 64 59 53 48
73 66 57 49 41 36 36 41 45 51 70 110 126 131 125 114 99 93 83 69 63 64 69 76 79 76 75 76 73 58 59 119 136 94 41 28 23 297 145 118 80 63 52
74 66 59 54 48 44 48 52 60 60 62 80 105 112 107 102 100 95 90 79 67 62 65 70 73 72 70 69 67 67 59 60 59 65 72 76 73 19 296 127 99 87 67
79 70 65 60 53 49 55 61 66 65 64 71 84 97 105 109 108 102 95 84 75 67 66 70 72 72 72 71 70 71 69 66 64 60 52 48 46 40 20 55 114 76 79
80 69 59 56 53 50 56 64 71 70 70 75 78 88 95 97 95 95 91 88 80 72 66 69 70 71 75 76 75 72 69 68 67 62 60 56 49 37 20 21 44 23 104
80 72 63 57 57 56 60 68 72 75 74 76 79 83 86 87 85 83 85 83 79 75 74 74 74 73 73 75 74 75 74 71 70 65 57 60 52 41 34 21 357 305 155
86 77 70 64 61 62 65 72 78 79 79 80 82 82 84 86 86 85 83 82 82 83 78 77 77 76 74 74 77 76 74 72 71 73 68 61 62 49 42 31 6 341 332
93 85 78 73 69 70 76 77 79 82 84 83 83 86 86 87 88 86 84 83 83 84 85 82 81 79 77 76 78 84 78 79 73 66 61 50 55 48 42 32 24 8 347
101 93 89 85 82 80 81 84 83 83 83 84 85 86 86 87 87 86 86 86 87 87 86 85 83 81 78 74 74 79 80 78 76 72 70 60 40 32 30 28 22 19 4
109 106 103 99 94 90 86 86 87 87 87 89 88 88 91 91 90 89 88 87 86 85 84 82 80 78 77 75 75 76 75 75 73 67 62 55 50 38 26 13 18 21 0
120 115 107 101 98 96 93 91 91 93 95 96 95 93 92 92 91 90 89 87 86 84 82 80 78 76 74 73 72 72 72 70 65 59 53 45 34 24 27 3 6 1 355
128 123 116 110 107 105 102 99 98 100 101 100 97 94 91 91 92 92 90 87 86 85 84 82 78 74 69 68 70 73 70 66 64 56 43 33 25 17 2 357 356 346 329
135 132 125 119 117 114 110 107 106 105 104 103 100 98 96 95 95 94 91 89 86 88 88 86 80 74 68 48 35 57 64 58 56 50 36 41 31 14 345 343 345 336 329
143 138 131 128 127 124 121 119 116 113 110 107 105 104 103 100 97 96 95 91 87 85 86 80 78 70 60 36 14 355 46 45 38 30 20 53 112 1 245 261 289 306 320
148 145 139 136 134 131 129 127 123 120 116 112 111 112 109 104 101 99 96 93 91 90 87 83 80 77 65 35 14 354 342 39 32 18 2 1 34 331 348 284 237 237 229
148 144 140 140 139 135 129 127 127 125 120 116 113 110 109 106 103 99 96 95 94 92 90 86 83 80 70 37 7 334 309 39 31 15 7 2 6 20 344 326 333 334 332
143 140 141 141 139 135 133 132 130 124 119 113 109 107 109 108 107 102 100 99 98 96 97 91 83 74 78 45 6 331 337 47 42 32 28 2 4 28 335 315 335 342 351
138 138 138 137 138 140 141 140 134 126 117 111 105 105 105 103 100 100 101 100 101 100 97 90 76 60 63 60 15 341 343 26 21 54 92 80 16 356 335 328 344 350 351
139 140 140 139 139 143 144 137 132 124 118 109 104 100 99 98 98 101 100 105 103 95 88 93 89 72 59 85 42 2 347 360 1 24 37 56 21 354 338 322 345 343 317
142 144 143 140 140 145 142 133 127 123 120 111 106 102 98 96 99 99 97 94 96 121 114 106 97 96 96 57 55 6 351 328 342 11 21 36 359 333 327 343 347 313 297
143 146 144 139 142 149 146 134 128 126 121 114 109 107 102 93 87 93 104 113 110 84 89 88 81 80 83 108 166 229 263 293 325 15 18 332 313 301 274 328 306 304 327
142 144 143 141 141 143 140 130 129 127 124 120 117 118 115 108 94 76 74 67 60 62 72 61 58 64 74 47 26 5 5 220 250 326 201 233 255 279 319 310 315 341 1
143 144 144 143 140 138 134 132 133 133 126 124 126 128 117 101 100 82 51 41 55 35 15 29 34 29 48 40 6 346 1 357 2 328 324 344 353 351 360 358 360 352 358
145 145 146 143 141 140 138 135 138 139 138 141 145 137 127 116 118 122 118 72 59 84 57 21 356 45 48 12 358 354 344 330 320 313 355 4 360 358 358 353 352 359 6